星链-1099 (STARLINK-1099 )

导读

STARLINK-1099是美国太空探索技术公司发射的星链卫星,于2020年1月7日发射,归属于美国星链星座。星链计划旨在构建全球卫星互联网系统,该卫星承担低轨网络通信任务,可为偏远地区等提供互联网接入服务,补充地面网络覆盖不足,目前已随星链星座组网运行,推进全球互联布局。

Basic Information
目录编号:
44918
目录名称:
STARLINK-1099
国际标识:
2020-001E
轨道中心:
EARTH
卫星名称:
星链-1099
卫星全名:
星链-1099 (STARLINK-1099 )
卫星状态:
已陨落 最后检测时间 2024-08-18
发射日期:
2020-01-07 UTC
国别 :
美国 (US)
星等 :
--
Orbit Information
数据来源 国际轨道数据
星历时间: 2024-08-16T01:29:15+0800
轨道信息已过期668天
半长轴: 6628.737km
偏心率: 0.0009236
轨道倾角: 53.037°
近地点辐角 351.415°
升交点赤经 279.119°
平近点角 8.673°
近地点: 244.479km
远地点: 256.725km
周期: 89.517分钟
每日圈数: 16.086319
Detailed Information
固有亮度:
5
最大亮度:
2.5
卫星平台:
Starlink V1.0
覆盖范围:
全球
运营商:
太空探索技术公司
运营商所在国:
美国
制造商(研发单位):
太空探索技术公司
制造商所在国:
美国
使用方式:
暂无
Satellite Introduction
星链(Starlink)计划是由太空探索技术公司(SpaceX)提出的一个巨型低轨卫星互联网星座项目,计划在2019年至2024年间在太空搭建由约1.2万颗卫星组成的“星链”网络,其中1584颗将部署在地球上空550千米处的近地轨道,并从2020年开始工作。该卫星仍在工作。